This demonstration page uses our WeatherBlox Daily Observations layout. Learn more.

41.55636, -103.73856

Hourly Observations for September 15, 2017

Temp ( °F °C ) Dew Point ( °F °C ) Humidity (%) Winds ( mph kmh ) Pressure ( in mb ) Visibility ( mi km ) Precip ( " mm )
12:53 am 00:53 Partly Cloudy 67 19.4 53 11.7 61 61 ESE 17 28 29.62 1003 10 16.0934 0 0
1:53 am 01:53 Clear 62 16.7 56 13.3 80 80 ENE 3 6 29.63 1003 7 11.26538 0 0
2:53 am 02:53 Clear 60 15.6 55 12.8 84 84 NW 5 7 29.61 1003 7 11.26538 0 0
3:53 am 03:53 Mostly Cloudy 60 15.6 55 12.8 84 84 N 6 9 29.63 1003 7 11.26538 0 0
4:53 am 04:53 Mostly Cloudy 60 15.6 56 13.3 86 86 N 6 9 29.65 1004 7 11.26538 0 0
5:53 am 05:53 Mostly Cloudy 61 16.1 56 13.3 84 84 undefined N/A 29.66 1004 7 11.26538 0 0
6:02 am 06:02 Mostly Cloudy 61 16 55 13 83 83 undefined N/A 29.65 1004 7 11.26538 0 0
6:34 am 06:34 Cloudy with Haze 61 16 55 13 83 83 N 5 7 29.65 1004 6 9.65604 0 0
6:53 am 06:53 Cloudy 62 16.7 56 13.3 80 80 N 8 13 29.66 1004 7 11.26538 0 0
7:53 am 07:53 Mostly Cloudy with Haze 62 16.7 57 13.9 84 84 N 6 9 29.66 1004 5 8.0467 0 0.0254
8:53 am 08:53 Partly Cloudy 67 19.4 58 14.4 73 73 NE 9 15 29.65 1004 7 11.26538 0 0
9:50 am 09:50 Cloudy 66 19 57 14 73 73 ENE 8 13 29.59 1002 8 12.87472 0 0
9:53 am 09:53 Cloudy 67 19.4 57 13.9 71 71 ENE 7 11 29.66 1004 9 14.48406 0 0
10:53 am 10:53 Mostly Cloudy 71 21.7 57 13.9 61 61 ENE 8 13 29.65 1004 9 14.48406 0 0
11:12 am 11:12 Partly Cloudy 71 21.7 57 13.9 61 61 E 6 9 29.56 1001 9 14.48406 0 0
11:53 am 11:53 Sunny 74 23.3 56 13.3 54 54 ENE 6 9 29.63 1004 10 16.0934 0 0
12:53 pm 12:53 Sunny 78 25.6 50 10 37 37 NNW 8 13 29.62 1003 10 16.0934 0 0
1:53 pm 13:53 Partly Cloudy 79 26.1 48 8.9 34 34 W 10 17 29.62 1003 10 16.0934 0 0
2:53 pm 14:53 Partly Cloudy 78 25.6 48 8.9 35 35 NW 16 26 29.63 1004 10 16.0934 0 0.0254
3:07 pm 15:07 Partly Cloudy 78 25.6 48 8.9 35 35 NNW 12 19 29.5 999 10 16.0934 0 0
3:53 pm 15:53 Sunny 81 27.2 44 6.7 27 27 NNW 8 13 29.63 1004 10 16.0934 0 0
4:53 pm 16:53 Mostly Sunny 80 26.7 42 5.6 26 26 WNW 13 20 29.65 1004 10 16.0934 0 0
5:53 pm 17:53 Partly Cloudy 78 25.6 44 6.7 30 30 NW 6 9 29.67 1005 10 16.0934 0 0
6:53 pm 18:53 Cloudy 70 21.1 51 10.6 51 51 N 20 31 29.73 1007 10 16.0934 0 0
7:44 pm 19:44 Cloudy with Nearby Thunderstorms 59 15 54 12 82 82 NNE 16 26 29.77 1008 5 8.0467 0 0
7:53 pm 19:53 Cloudy with Nearby Thunderstorms 59 15 53 11.7 81 81 N 18 30 29.78 1008 10 16.0934 0.05 1.27
8:05 pm 20:05 Mostly Cloudy with Light Rain 58 14.4 52 11.1 81 81 N 17 28 29.8 1009 10 16.0934 0 0.0254
8:53 pm 20:53 Clear 56 13.3 49 9.4 77 77 NNW 14 22 29.84 1011 10 16.0934 0 0.0254
9:53 pm 21:53 Cloudy 54 12.2 47 8.3 77 77 NW 15 24 29.9 1012 10 16.0934 0 0
10:53 pm 22:53 Cloudy 53 11.7 45 7.2 74 74 NW 3 6 29.88 1012 10 16.0934 0 0
11:53 pm 23:53 Cloudy with Light Rain 51 10.6 47 8.3 86 86 N 12 19 29.89 1012 6 9.65604 0.06 1.524

Powered by AerisWeather